SCP
0 0 0 0 0 0 0 0 0 0 0 0 0 0 0 1 1 1 1 0 0 0 0 0 0 0 0 0 0 0 1 1 1 1 1 1 1 0 0 0 0 1 1
0 0 0 0 0 0 0 0 0 0 0 0 0 0 0 0 1 1 0 0 0 0 0 0 0 0 0 1 1 1 1 1 1 1 1 1 0 0 0 0 0 0 1
0 0 0 0 0 0 0 0 0 0 0 0 0 0 0 0 0 0 0 0 0 0 0 0 0 0 1 1 1 1 1 1 1 0 0 0 0 0 0 0 0 0 0
0 0 0 0 0 0 0 0 0 0 0 0 0 0 0 0 0 0 0 0 0 0 0 0 0 0 0 1 1 1 1 1 0 0 0 0 0 0 0 0 0 0 0
0 0 0 0 0 0 0 0 0 0 0 0 0 0 0 0 0 0 0 0 0 0 0 0 0 0 0 1 1 1 1 0 0 0 0 0 0 0 1 0 0 0 0
0 0 0 0 0 0 0 0 0 0 0 0 0 0 0 0 0 0 0 0 0 0 0 0 1 1 1 1 1 1 1 0 0 0 0 0 0 0 1 1 1 1 0
0 0 0 0 0 0 0 0 0 0 0 0 0 0 1 1 1 0 0 0 0 0 0 0 1 1 1 0 0 0 0 0 0 0 0 0 0 0 1 1 1 1 1
0 0 0 0 0 1 1 0 0 0 0 0 0 1 1 1 1 1 0 0 0 0 0 0 1 1 0 0 0 1 1 0 0 0 0 0 0 0 1 1 1 1 1
0 0 0 0 0 0 1 1 0 0 0 0 0 1 1 1 1 0 0 0 0 0 0 0 0 1 1 1 1 1 1 0 0 0 0 0 0 0 1 1 1 1 1
0 0 0 0 0 0 0 0 0 0 0 0 0 0 0 0 0 0 0 0 0 0 1 1 1 1 1 1 1 1 0 0 0 0 0 0 0 0 1 1 1 1 1
0 0 0 0 0 0 0 0 0 0 0 0 0 0 0 0 0 0 0 0 1 1 1 1 1 1 1 1 1 1 0 0 0 0 0 0 0 0 1 1 1 1 1
0 0 0 0 0 0 0 0 0 0 0 0 0 0 0 0 1 1 1 1 1 1 1 1 1 1 1 1 1 0 0 1 1 1 1 1 0 0 0 1 1 1 1
1 0 0 0 0 0 0 0 0 0 0 0 0 0 0 0 0 0 0 0 0 1 1 1 1 1 0 0 0 0 0 1 1 1 1 1 1 0 0 0 1 1 1
1 1 0 0 0 0 0 0 0 0 0 0 0 0 0 0 0 0 0 0 0 0 1 1 1 1 0 0 0 0 0 0 1 1 1 1 1 0 0 1 1 1 1
1 1 1 0 0 0 0 0 0 0 0 0 0 0 0 0 0 0 0 0 0 0 1 1 1 1 1 0 0 0 0 0 0 0 0 0 0 0 0 1 1 1 1
1 1 1 1 1 1 1 0 0 0 0 0 1 1 1 0 0 0 0 0 0 0 0 1 1 1 1 1 1 0 0 0 0 0 0 0 0 0 0 1 1 1 1
1 1 1 1 1 1 1 1 0 0 1 1 1 1 1 1 1 0 0 0 0 0 0 0 1 1 1 1 1 1 1 1 1 1 0 0 0 0 0 1 1 1 1
1 1 1 1 1 1 1 1 1 1 1 1 1 1 1 1 1 1 1 1 0 0 0 0 0 1 1 1 1 1 1 1 1 1 1 1 0 0 1 1 1 1 1
1 1 1 0 0 1 1 1 1 1 1 1 1 1 1 1 1 1 1 1 1 1 1 0 0 0 1 1 1 1 1 1 1 1 1 1 1 1 1 1 1 1 1
2 2 2 1 1 1 2 2 1 1 1 1 1 1 1 1 1 1 1 1 1 1 1 0 0 0 1 1 1 1 1 1 1 1 1 1 1 1 1 1 1 1 1
3 3 3 2 2 2 3 3 2 1 1 1 1 1 2 2 1 1 1 1 1 1 0 0 0 1 1 1 1 1 1 1 1 1 1 1 1 1 1 1 1 1 1
3 3 3 3 3 2 3 3 2 2 1 1 1 1 1 2 2 1 1 1 1 1 1 0 0 1 1 1 1 1 1 1 1 1 0 1 1 1 1 1 1 1 1
4 4 4 3 3 2 2 2 2 2 1 1 1 1 1 1 2 2 1 1 1 0 0 0 0 0 1 1 0 1 1 1 1 1 1 1 1 1 1 1 1 2 2
4 4 4 3 3 2 2 2 2 2 2 1 1 1 1 1 2 2 2 1 1 0 0 0 0 0 0 0 0 0 1 1 1 1 1 1 1 1 1 0 1 2 2
3 4 5 4 3 2 2 2 2 2 2 2 1 1 2 2 2 2 1 1 1 0 0 0 0 0 0 0 0 1 1 1 1 1 1 1 1 1 0 0 1 1 2
2 4 5 4 3 3 2 2 2 2 2 2 2 2 2 2 2 2 1 1 1 0 0 0 0 0 0 0 1 1 1 1 1 1 1 1 1 1 0 0 0 1 1
Wind_Speed
3 4 6 4 4 5 6 6 7 7 8 8 9 9 9 8 8 8 8 8 8 8 8 8 8 7 7 8 8 8 7 8 7 6 7 7 6 6 5 4 3 5 6
4 5 6 4 4 5 5 6 7 7 7 8 8 8 8 8 8 7 7 8 8 8 8 8 7 8 8 8 8 8 8 8 7 6 6 6 6 6 5 4 3 5 5
4 5 6 4 4 5 5 6 6 6 7 7 8 8 7 8 8 7 7 8 8 7 7 7 8 8 8 8 8 8 8 7 7 5 2 4 6 7 5 5 5 5 4
4 4 6 5 4 4 5 5 6 6 7 7 7 7 7 7 7 8 7 7 8 8 8 8 8 8 8 8 8 8 8 7 5 1 2 4 5 8 6 5 5 5 4
5 5 6 4 5 5 5 5 6 6 6 6 6 6 7 7 7 7 7 7 7 8 8 8 8 8 8 8 8 7 7 6 4 2 5 5 5 7 6 5 5 5 4
5 5 7 4 5 5 5 6 6 6 6 6 6 6 6 6 7 7 7 7 7 7 8 8 8 8 8 8 7 7 6 4 2 4 4 4 5 7 6 6 5 5 5
6 5 7 6 5 5 6 6 6 6 6 6 6 6 6 6 6 6 7 7 7 7 7 8 8 8 8 8 7 7 6 3 4 4 4 5 6 7 6 6 6 5 5
5 5 6 7 6 6 6 7 7 7 7 7 7 7 7 7 7 6 6 6 6 7 7 7 8 8 8 8 8 7 6 3 4 5 5 5 7 6 6 6 6 6 6
5 4 4 5 6 6 6 7 7 7 7 8 8 8 7 7 7 6 7 6 6 7 7 7 8 8 8 8 7 7 6 5 3 3 5 5 7 6 6 7 7 7 7
4 4 4 4 4 4 6 7 7 7 7 7 7 7 6 6 6 6 6 7 6 7 7 7 7 8 8 7 7 6 3 0 4 4 4 6 8 7 7 7 7 7 7
4 3 3 3 3 3 4 6 5 5 5 4 6 5 2 3 5 4 8 7 6 7 7 7 7 7 6 7 6 3 0 2 5 4 5 8 8 7 6 7 7 7 7
4 3 3 3 3 3 3 3 2 3 3 3 4 4 3 4 4 4 7 6 6 6 7 7 5 3 1 3 4 1 2 4 4 4 6 9 8 7 7 7 7 7 7
3 3 3 2 2 2 2 2 2 2 2 3 4 4 3 3 3 3 3 3 3 3 4 4 3 2 3 3 3 3 4 4 3 4 7 10 8 8 7 7 7 7 7
3 3 2 2 2 2 2 2 2 1 1 2 2 3 3 2 2 3 2 3 2 2 3 2 2 3 4 4 4 4 5 3 4 3 7 10 9 9 8 7 7 7 7
2 2 2 1 1 2 2 1 1 2 1 2 2 2 3 2 3 2 2 2 3 3 2 2 3 4 3 4 4 4 5 5 5 4 5 10 10 10 8 8 7 7 7
2 2 2 2 1 1 2 1 2 2 1 1 2 2 2 2 2 2 3 3 3 2 2 2 3 3 3 3 4 4 4 4 4 4 4 6 9 10 9 8 8 7 7
1 1 2 1 1 1 2 2 2 1 2 2 2 2 2 2 2 2 2 2 2 2 3 2 3 2 3 3 3 4 3 4 3 4 4 3 5 8 9 8 8 8 7
1 1 2 2 1 1 1 1 1 1 2 1 2 1 2 2 2 2 2 2 2 2 2 2 2 2 2 2 3 2 2 3 4 4 3 3 3 3 7 8 8 7 7
1 1 2 2 2 2 1 1 1 2 1 1 1 1 1 2 2 2 1 1 2 2 2 2 2 2 2 2 2 2 2 3 3 3 4 4 4 3 3 6 8 8 7
1 1 1 2 2 2 1 2 2 2 1 1 1 1 1 1 1 2 1 2 2 1 2 2 2 2 2 2 2 3 3 2 2 3 3 3 3 4 3 3 3 6 8
2 1 1 2 2 2 2 2 1 1 1 1 1 1 1 1 1 1 1 1 1 1 2 2 2 2 1 1 1 2 2 3 3 2 2 2 3 3 3 3 2 2 4
1 1 1 1 2 2 2 1 1 1 1 1 1 1 1 1 1 1 1 1 1 1 2 2 2 1 1 1 1 1 2 3 2 2 2 2 2 3 3 3 3 3 3
2 1 0 1 2 2 3 2 2 2 1 1 1 1 0 0 0 1 1 1 1 1 1 1 2 2 1 1 1 1 1 1 2 2 2 2 2 2 3 3 4 4 4
2 1 1 1 2 2 2 2 2 1 1 1 0 0 1 0 0 0 0 1 1 1 1 1 1 2 1 1 0 1 2 1 1 1 2 2 2 2 3 2 3 3 3
2 2 1 1 2 2 2 2 2 1 1 0 0 1 1 1 0 0 1 1 1 1 2 2 2 2 1 2 1 1 0 1 2 1 1 1 1 1 2 2 2 2 3
2 2 2 2 2 2 1 2 2 1 1 1 0 0 0 0 1 1 2 2 2 2 2 2 2 2 2 2 2 1 1 1 1 1 1 1 1 1 1 1 1 2 2
Wind_Direction
64 77 82 73 68 72 77 79 80 80 78 77 77 76 76 77 76 73 71 75 75 73 73 74 81 84 83 84 86 91 95 97 96 96 94 91 90 95 96 106 141 116 107
67 83 93 82 78 80 79 78 81 78 79 80 78 76 75 75 74 72 71 72 73 73 72 73 79 83 84 83 85 88 86 89 92 93 99 105 94 87 88 83 58 76 92
84 89 106 89 80 82 83 80 77 75 76 83 79 77 77 75 72 72 72 72 72 73 75 76 78 78 79 79 81 83 83 84 86 93 120 109 100 88 84 84 82 84 87
89 89 84 83 83 83 87 86 80 79 76 79 80 78 80 77 71 72 74 73 74 74 76 77 77 77 77 77 78 80 80 77 77 116 107 79 86 85 80 81 83 84 80
92 88 85 76 82 82 83 86 83 78 76 75 75 76 79 78 74 73 72 72 72 76 77 77 75 77 77 77 78 78 79 77 76 61 68 71 73 79 75 74 78 78 78
96 93 90 73 76 78 79 82 82 79 76 74 72 72 76 77 77 77 74 72 71 76 77 75 74 74 75 78 81 80 75 68 89 71 70 75 79 79 72 68 71 74 74
95 90 92 80 76 79 78 78 75 75 73 72 70 70 74 76 79 81 77 76 75 78 78 75 74 75 73 74 80 80 73 38 63 72 71 71 72 73 69 68 70 71 74
94 91 97 96 79 80 79 75 74 73 71 68 65 66 71 73 74 76 75 74 75 79 81 77 76 75 75 75 78 76 63 360 79 70 68 67 70 67 65 67 69 72 71
92 91 93 106 110 99 82 71 70 69 66 64 64 64 67 69 71 74 72 73 79 82 80 77 80 77 74 73 75 73 61 14 49 64 68 68 70 67 66 69 71 73 72
96 91 87 88 92 101 102 83 71 68 64 66 68 67 73 87 87 80 77 71 78 82 83 79 79 77 72 69 71 73 65 328 57 60 58 72 70 67 67 70 71 71 71
99 92 90 91 87 87 88 97 95 90 76 85 92 87 97 83 81 85 65 68 74 80 82 81 79 77 81 82 72 66 278 70 68 53 51 64 67 66 67 70 71 73 72
109 95 86 84 85 91 85 96 90 88 87 69 67 71 64 62 63 67 85 74 74 82 91 84 87 109 121 99 105 160 78 68 66 65 64 60 63 66 70 70 73 75 73
104 97 87 84 84 87 94 84 79 75 79 78 69 73 67 72 84 76 93 107 98 108 101 109 126 83 76 67 62 70 59 55 56 60 63 58 58 62 66 68 70 71 70
107 99 92 83 90 82 83 85 86 86 79 74 71 67 66 63 58 68 66 68 75 74 73 81 87 87 78 81 77 74 74 65 62 58 62 55 51 54 59 63 69 73 73
124 125 115 109 89 90 88 89 97 81 65 82 72 75 72 67 68 82 88 79 76 77 85 83 88 85 78 73 68 64 65 62 66 63 71 62 49 48 52 58 65 73 76
148 143 131 136 116 119 120 119 90 81 90 79 85 79 78 75 73 75 80 77 75 76 74 79 83 88 84 80 76 71 63 59 62 65 68 79 66 51 49 53 58 65 74
143 150 134 133 138 142 111 96 92 95 91 86 89 89 78 68 76 75 74 79 80 87 89 78 82 80 87 89 82 67 63 55 57 64 65 57 80 75 57 53 56 60 66
125 134 134 141 160 133 115 121 114 102 87 94 96 88 82 83 76 77 76 83 85 91 98 92 86 87 81 76 75 68 63 64 55 53 59 60 47 62 77 61 56 58 64
100 128 146 144 148 130 124 137 120 110 102 89 97 97 87 76 86 100 84 92 100 97 94 97 86 77 83 74 69 65 57 56 53 48 51 51 54 47 66 90 75 60 62
127 138 137 136 157 139 152 149 129 118 109 103 104 99 86 85 91 108 124 125 118 120 107 102 98 81 76 77 74 69 64 66 57 48 41 44 44 46 49 60 88 85 70
131 125 122 156 163 161 166 164 150 138 132 117 102 79 105 113 108 116 139 125 129 133 136 129 126 117 110 99 113 120 107 81 71 64 50 46 54 45 53 52 54 66 95
92 105 117 144 160 165 168 161 154 139 144 93 107 129 145 132 124 130 158 145 154 150 154 145 154 169 146 181 223 208 163 151 108 68 64 58 49 54 49 54 65 70 60
53 23 89 130 146 151 150 145 145 137 140 134 125 89 83 34 129 171 166 163 159 181 169 181 190 205 202 201 285 288 255 153 126 119 79 70 58 55 56 46 58 72 79
60 31 32 123 139 145 156 167 168 159 165 161 170 133 132 105 17 329 202 203 205 192 191 206 202 234 232 215 193 311 326 13 239 156 145 98 67 56 48 42 40 57 68
77 65 55 88 109 128 151 155 188 173 148 111 138 129 108 129 147 222 243 228 230 214 207 210 218 232 233 245 222 199 219 231 256 230 155 137 121 84 61 46 42 49 56
86 83 74 82 99 105 144 163 182 180 157 139 146 74 39 183 177 183 238 229 231 226 212 211 219 223 230 236 239 227 227 228 237 238 201 185 141 94 92 64 42 55 56